Location: Oriwa
(40.7500°S, 175.3333°E)
Time: 14:15:39
(UTC+00:00)

Cosmos 1459 Rocket - Pass Details

Date: 03 February 2023
Orbit: 936 x 1000 km, 83.0° (Epoch: 30 March)

Event Time Altitude Azimuth Distance (km) Brightness Sun altitude
Exits shadow 13:35:06 49° 86° (E) 1,201 4.4 -30.9°
Maximum altitude 13:35:12 50° 89° (E) 1,200 4.4 -30.9°
Drops below altitude 10° 13:41:03 10° 162° (SSE) 2,680 7.2 -30.6°
Sets 13:43:36 0° 167° (SSE) 3,631 8.2 -30.4°
